,,PA_Meas_PMT16A,,PR_Meas_QMR101_102,,RH_Meas_QMH101,,SR_Meas_QMS101,,TA_Meas_QMH101,,GenWind,,GenWind,
time,status,PA,status,PR,status,RH,status,SR,status,TA,status,DirAvg,status,SpdAvg,
2010-07-07, 00:00:04,VALID,917.516,VALID,0,VALID,94.6981,VALID,0,VALID,22.1379,VALID,243,VALID,0.232812,
2010-07-07, 00:01:04,VALID,917.498,VALID,0,VALID,94.7667,VALID,0,VALID,22.1591,VALID,243,VALID,0,
2010-07-07, 00:02:04,VALID,917.503,VALID,0,VALID,94.9268,VALID,0,VALID,22.1981,VALID,243,VALID,0.242188,
2010-07-07, 00:03:04,VALID,917.507,VALID,0,VALID,94.9649,VALID,0,VALID,22.1981,VALID,243,VALID,0.55625,
2010-07-07, 00:04:04,VALID,917.51,VALID,0,VALID,94.82,VALID,0,VALID,22.2176,VALID,243,VALID,0.167187,
2010-07-07, 00:05:04,VALID,917.525,VALID,0,VALID,94.6981,VALID,0,VALID,22.2176,VALID,243,VALID,0,
2010-07-07, 00:06:04,VALID,917.497,VALID,0,VALID,94.6142,VALID,0,VALID,22.2371,VALID,243,VALID,0.0882813,
2010-07-07, 00:07:04,VALID,917.522,VALID,0,VALID,94.4922,VALID,0,VALID,22.2176,VALID,243,VALID,0.239453,
2010-07-07, 00:08:04,VALID,917.513,VALID,0,VALID,94.4617,VALID,0,VALID,22.1981,VALID,243,VALID,0.286328,
2010-07-07, 00:09:04,VALID,917.511,VALID,0,VALID,94.5913,VALID,0,VALID,22.1981,VALID,243,VALID,0.164063,
2010-07-07, 00:10:04,VALID,917.529,VALID,0,VALID,94.6218,VALID,0,VALID,22.1786,VALID,243,VALID,0.266016,
2010-07-07, 00:11:04,VALID,917.562,VALID,0,VALID,94.6981,VALID,0,VALID,22.1574,VALID,243,VALID,0.260156,
2010-07-07, 00:12:04,VALID,917.573,VALID,0,VALID,94.7209,VALID,0,VALID,22.1591,VALID,243,VALID,0.334766,
2010-07-07, 00:13:04,VALID,917.567,VALID,0,VALID,94.7819,VALID,0,VALID,22.1591,VALID,243,VALID,0,
2010-07-07, 00:14:04,VALID,917.538,VALID,0,VALID,94.8048,VALID,0,VALID,22.1591,VALID,243,VALID,0.137891,
2010-07-07, 00:15:04,VALID,917.539,VALID,0,VALID,94.8582,VALID,0,VALID,22.1396,VALID,243,VALID,0.0492188,
2010-07-07, 00:16:04,VALID,917.542,VALID,0,VALID,94.9039,VALID,0,VALID,22.1396,VALID,243,VALID,0.0894531,
2010-07-07, 00:17:04,VALID,917.526,VALID,0,VALID,94.9344,VALID,0,VALID,22.1201,VALID,243,VALID,0.255859,
2010-07-07, 00:18:04,VALID,917.545,VALID,0,VALID,94.9496,VALID,0,VALID,22.1396,VALID,243,VALID,0.197656,
2010-07-07, 00:19:04,VALID,917.515,VALID,0,VALID,94.9496,VALID,0,VALID,22.1184,VALID,243,VALID,0.559375,
2010-07-07, 00:20:04,VALID,917.504,VALID,0,VALID,94.9496,VALID,0,VALID,22.1005,VALID,243,VALID,0.49375,
2010-07-07, 00:21:04,VALID,917.444,VALID,0,VALID,94.9192,VALID,0,VALID,22.081,VALID,244,VALID,1.00352,
2010-07-07, 00:22:04,VALID,917.488,VALID,0,VALID,94.942,VALID,0,VALID,22.042,VALID,266,VALID,1.00117,
2010-07-07, 00:23:04,VALID,917.469,VALID,0,VALID,95.1021,VALID,0,VALID,22.0013,VALID,266,VALID,0.333984,
2010-07-07, 00:24:04,VALID,917.459,VALID,0,VALID,95.1707,VALID,0,VALID,22.0013,VALID,266,VALID,0.4,
2010-07-07, 00:25:04,VALID,917.445,VALID,0,VALID,95.2622,VALID,0,VALID,22.003,VALID,266,VALID,0.224609,
2010-07-07, 00:26:04,VALID,917.508,VALID,0,VALID,95.2698,VALID,0,VALID,21.9818,VALID,266,VALID,0.699219,
2010-07-07, 00:27:04,VALID,917.511,VALID,0,VALID,95.3461,VALID,0,VALID,21.9835,VALID,266,VALID,0.451953,
2010-07-07, 00:28:04,VALID,917.49,VALID,0,VALID,95.3384,VALID,0,VALID,21.9835,VALID,266,VALID,0.555078,
2010-07-07, 00:29:04,VALID,917.525,VALID,0,VALID,95.3308,VALID,0,VALID,21.9428,VALID,266,VALID,0.439063,
2010-07-07, 00:30:04,VALID,917.518,VALID,0,VALID,95.3079,VALID,0,VALID,21.9444,VALID,327,VALID,0.485156,
2010-07-07, 00:31:04,VALID,917.5,VALID,0,VALID,95.3842,VALID,0,VALID,21.9835,VALID,327,VALID,0.0191406,
2010-07-07, 00:32:04,VALID,917.451,VALID,0,VALID,95.3232,VALID,0,VALID,21.9835,VALID,327,VALID,0.126953,
2010-07-07, 00:33:04,VALID,917.452,VALID,0,VALID,95.3232,VALID,0,VALID,22.0013,VALID,327,VALID,0.0078125,
2010-07-07, 00:34:04,VALID,917.427,VALID,0,VALID,95.2165,VALID,0,VALID,22.0225,VALID,327,VALID,0.367578,
2010-07-07, 00:35:04,VALID,917.427,VALID,0,VALID,95.1631,VALID,0,VALID,21.9835,VALID,327,VALID,0.513672,
2010-07-07, 00:36:04,VALID,917.424,VALID,0,VALID,95.1707,VALID,0,VALID,21.9623,VALID,327,VALID,0.278125,
2010-07-07, 00:37:04,VALID,917.455,VALID,0,VALID,95.1402,VALID,0,VALID,21.9623,VALID,327,VALID,0.48125,
2010-07-07, 00:38:04,VALID,917.418,VALID,0,VALID,95.1479,VALID,0,VALID,21.9835,VALID,327,VALID,0.576172,
2010-07-07, 00:39:04,VALID,917.427,VALID,0,VALID,95.1479,VALID,0,VALID,21.9428,VALID,327,VALID,0.997656,
2010-07-07, 00:40:04,VALID,917.44,VALID,0,VALID,95.0945,VALID,0,VALID,21.9233,VALID,317,VALID,0.702344,
2010-07-07, 00:41:04,VALID,917.418,VALID,0,VALID,95.1402,VALID,0,VALID,21.9233,VALID,316,VALID,0.686328,
2010-07-07, 00:42:04,VALID,917.41,VALID,0,VALID,95.1631,VALID,0,VALID,21.9038,VALID,316,VALID,0.782031,
2010-07-07, 00:43:04,VALID,917.386,VALID,0,VALID,95.2241,VALID,0,VALID,21.8647,VALID,316,VALID,0.622656,
2010-07-07, 00:44:04,VALID,917.375,VALID,0,VALID,95.2698,VALID,0,VALID,21.8859,VALID,316,VALID,0.579297,
2010-07-07, 00:45:04,VALID,917.362,VALID,0,VALID,95.3842,VALID,0,VALID,21.8859,VALID,316,VALID,0.230469,
2010-07-07, 00:46:04,VALID,917.363,VALID,0,VALID,95.4071,VALID,0,VALID,21.8859,VALID,315,VALID,0.682422,
2010-07-07, 00:47:04,VALID,917.341,VALID,0,VALID,95.4528,VALID,0,VALID,21.8664,VALID,315,VALID,0.530859,
2010-07-07, 00:48:04,VALID,917.324,VALID,0,VALID,95.4452,VALID,0,VALID,21.8452,VALID,315,VALID,0.217578,
2010-07-07, 00:49:04,VALID,917.335,VALID,0,VALID,95.4223,VALID,0,VALID,21.8452,VALID,315,VALID,0.637109,
2010-07-07, 00:50:04,VALID,917.312,VALID,0,VALID,95.3994,VALID,0,VALID,21.8257,VALID,315,VALID,0.748438,
2010-07-07, 00:51:04,VALID,917.282,VALID,0,VALID,95.4223,VALID,0,VALID,21.8062,VALID,314,VALID,0.5125,
2010-07-07, 00:52:04,VALID,917.272,VALID,0,VALID,95.4375,VALID,0,VALID,21.8274,VALID,314,VALID,0.565625,
2010-07-07, 00:53:04,VALID,917.283,VALID,0,VALID,95.4299,VALID,0,VALID,21.8062,VALID,314,VALID,0.359375,
2010-07-07, 00:54:04,VALID,917.284,VALID,0,VALID,95.4299,VALID,0,VALID,21.8079,VALID,314,VALID,0.469531,
2010-07-07, 00:55:04,VALID,917.271,VALID,0,VALID,95.4909,VALID,0,VALID,21.8274,VALID,314,VALID,0.402344,
2010-07-07, 00:56:04,VALID,917.25,VALID,0,VALID,95.5443,VALID,0,VALID,21.8257,VALID,314,VALID,0,
2010-07-07, 00:57:04,VALID,917.241,VALID,0,VALID,95.5595,VALID,0,VALID,21.8257,VALID,314,VALID,0,
2010-07-07, 00:58:04,VALID,917.175,VALID,0,VALID,95.59,VALID,0,VALID,21.8664,VALID,314,VALID,0.339063,
2010-07-07, 00:59:04,VALID,917.183,VALID,0,VALID,95.5748,VALID,0.107441,VALID,21.8842,VALID,314,VALID,0.457031,
2010-07-07, 01:00:04,VALID,917.145,VALID,0,VALID,95.4604,VALID,0,VALID,21.8859,VALID,314,VALID,0.204688,
2010-07-07, 01:01:04,VALID,917.137,VALID,0,VALID,95.2622,VALID,0,VALID,21.8469,VALID,314,VALID,0.391406,
2010-07-07, 01:02:04,VALID,917.176,VALID,0,VALID,95.186,VALID,0,VALID,21.8664,VALID,314,VALID,0.242578,
2010-07-07, 01:03:04,VALID,917.157,VALID,0,VALID,95.1707,VALID,0,VALID,21.8664,VALID,314,VALID,0.498437,
2010-07-07, 01:04:04,VALID,917.167,VALID,0,VALID,95.125,VALID,0,VALID,21.8452,VALID,314,VALID,0.565625,
2010-07-07, 01:05:04,VALID,917.16,VALID,0,VALID,95.1097,VALID,0,VALID,21.8452,VALID,314,VALID,0.444922,
2010-07-07, 01:06:04,VALID,917.113,VALID,0,VALID,95.1707,VALID,0,VALID,21.8274,VALID,314,VALID,0.4375,
2010-07-07, 01:07:04,VALID,917.159,VALID,0,VALID,95.3003,VALID,0,VALID,21.8257,VALID,314,VALID,0.711719,
2010-07-07, 01:08:04,VALID,917.132,VALID,0,VALID,95.247,VALID,0,VALID,21.8257,VALID,314,VALID,0.601172,
2010-07-07, 01:09:04,VALID,917.095,VALID,0,VALID,95.3308,VALID,0,VALID,21.8274,VALID,314,VALID,0.66875,
2010-07-07, 01:10:04,VALID,917.127,VALID,0,VALID,95.2775,VALID,0,VALID,21.8274,VALID,314,VALID,0.844531,
2010-07-07, 01:11:04,VALID,917.079,VALID,0,VALID,95.2698,VALID,0,VALID,21.8079,VALID,314,VALID,0.576563,
2010-07-07, 01:12:04,VALID,917.054,VALID,0,VALID,95.3079,VALID,0,VALID,21.8079,VALID,314,VALID,0.546094,
2010-07-07, 01:13:04,VALID,917.031,VALID,0,VALID,95.3308,VALID,0,VALID,21.7883,VALID,314,VALID,0.313281,
2010-07-07, 01:14:04,VALID,916.998,VALID,0,VALID,95.4071,VALID,0,VALID,21.7282,VALID,314,VALID,0.0640625,
2010-07-07, 01:15:04,VALID,917.012,VALID,0,VALID,95.4604,VALID,0,VALID,21.7493,VALID,314,VALID,0.266016,
2010-07-07, 01:16:04,VALID,916.994,VALID,0,VALID,95.5138,VALID,0,VALID,21.7298,VALID,314,VALID,0.254297,
2010-07-07, 01:17:04,VALID,916.981,VALID,0,VALID,95.6205,VALID,0,VALID,21.7493,VALID,314,VALID,0.0796875,
2010-07-07, 01:18:04,VALID,916.952,VALID,0,VALID,95.6205,VALID,0,VALID,21.7493,VALID,314,VALID,0.153516,
2010-07-07, 01:19:04,VALID,916.951,VALID,0,VALID,95.7044,VALID,0,VALID,21.7688,VALID,314,VALID,0,
2010-07-07, 01:20:04,VALID,916.932,VALID,0,VALID,95.651,VALID,0,VALID,21.7688,VALID,314,VALID,0.327734,
2010-07-07, 01:21:04,VALID,916.921,VALID,0,VALID,95.5671,VALID,0,VALID,21.7282,VALID,314,VALID,0.521484,
2010-07-07, 01:22:04,VALID,916.861,VALID,0,VALID,95.6434,VALID,0,VALID,21.7298,VALID,314,VALID,0.73125,
2010-07-07, 01:23:04,VALID,916.837,VALID,0,VALID,95.6281,VALID,0,VALID,21.7493,VALID,314,VALID,0.512109,
2010-07-07, 01:24:04,VALID,916.854,VALID,0,VALID,95.5595,VALID,0,VALID,21.7493,VALID,314,VALID,0.232422,
2010-07-07, 01:25:04,VALID,916.834,VALID,0,VALID,95.651,VALID,0,VALID,21.7282,VALID,314,VALID,0.201562,
2010-07-07, 01:26:04,VALID,916.828,VALID,0,VALID,95.5976,VALID,0,VALID,21.7883,VALID,314,VALID,0.0445312,
2010-07-07, 01:27:04,VALID,916.851,VALID,0,VALID,95.5519,VALID,0,VALID,21.7883,VALID,314,VALID,0.208594,
2010-07-07, 01:28:04,VALID,916.85,VALID,0,VALID,95.468,VALID,0,VALID,21.7477,VALID,314,VALID,0.0238281,
2010-07-07, 01:29:04,VALID,916.862,VALID,0,VALID,95.4909,VALID,0,VALID,21.8079,VALID,314,VALID,0.243359,
2010-07-07, 01:30:04,VALID,916.876,VALID,0,VALID,95.5138,VALID,0,VALID,21.8079,VALID,314,VALID,0.040625,
2010-07-07, 01:31:04,VALID,916.874,VALID,0,VALID,95.4299,VALID,0,VALID,21.8079,VALID,313,VALID,0.432422,
2010-07-07, 01:32:04,VALID,916.858,VALID,0,VALID,95.3308,VALID,0,VALID,21.7883,VALID,313,VALID,0.194141,
2010-07-07, 01:33:04,VALID,916.843,VALID,0,VALID,95.3308,VALID,0,VALID,21.8079,VALID,314,VALID,0.304688,
2010-07-07, 01:34:04,VALID,916.836,VALID,0,VALID,95.3384,VALID,0,VALID,21.8274,VALID,313,VALID,0.420703,
2010-07-07, 01:35:04,VALID,916.814,VALID,0,VALID,95.2775,VALID,0,VALID,21.8274,VALID,313,VALID,0.443359,
2010-07-07, 01:36:04,VALID,916.806,VALID,0,VALID,95.2317,VALID,0,VALID,21.8079,VALID,312,VALID,0.421875,
2010-07-07, 01:37:04,VALID,916.795,VALID,0,VALID,95.2241,VALID,0,VALID,21.8079,VALID,313,VALID,0.389062,
2010-07-07, 01:38:04,VALID,916.718,VALID,0,VALID,95.2165,VALID,0,VALID,21.7883,VALID,312,VALID,0.329688,
2010-07-07, 01:39:04,VALID,916.737,VALID,0,VALID,95.2241,VALID,0,VALID,21.7477,VALID,312,VALID,0.0769531,
2010-07-07, 01:40:04,VALID,916.722,VALID,0,VALID,95.3156,VALID,0,VALID,21.7883,VALID,313,VALID,0.141016,
2010-07-07, 01:41:04,VALID,916.691,VALID,0,VALID,95.2927,VALID,0.107441,VALID,21.7672,VALID,313,VALID,0.402734,
2010-07-07, 01:42:04,VALID,916.639,VALID,0,VALID,95.2851,VALID,0,VALID,21.8274,VALID,313,VALID,0.819922,
2010-07-07, 01:43:04,VALID,916.614,VALID,0,VALID,95.0869,VALID,0,VALID,21.8079,VALID,313,VALID,0.725391,
2010-07-07, 01:44:04,VALID,916.585,VALID,0,VALID,94.8658,VALID,0,VALID,21.8079,VALID,312,VALID,0.807031,
2010-07-07, 01:45:04,VALID,916.55,VALID,0,VALID,94.9192,VALID,0,VALID,21.7883,VALID,312,VALID,0.365625,
2010-07-07, 01:46:04,VALID,916.516,VALID,0,VALID,94.8429,VALID,0,VALID,21.7688,VALID,313,VALID,0.282422,
2010-07-07, 01:47:04,VALID,916.477,VALID,0,VALID,94.8277,VALID,0,VALID,21.7688,VALID,313,VALID,0.276172,
2010-07-07, 01:48:04,VALID,916.439,VALID,0,VALID,94.8277,VALID,0,VALID,21.7493,VALID,313,VALID,0.278516,
2010-07-07, 01:49:04,VALID,916.396,VALID,0,VALID,94.9039,VALID,0,VALID,21.7493,VALID,313,VALID,0.365234,
2010-07-07, 01:50:04,VALID,916.391,VALID,0,VALID,95.0183,VALID,0,VALID,21.7298,VALID,313,VALID,0.304688,
2010-07-07, 01:51:04,VALID,916.424,VALID,0,VALID,95.0945,VALID,0,VALID,21.7103,VALID,312,VALID,0,
2010-07-07, 01:52:04,VALID,916.391,VALID,0,VALID,95.186,VALID,0,VALID,21.6891,VALID,312,VALID,0,
2010-07-07, 01:53:04,VALID,916.407,VALID,0,VALID,95.1174,VALID,0,VALID,21.6713,VALID,312,VALID,0.398438,
2010-07-07, 01:54:04,VALID,916.412,VALID,0,VALID,95.1021,VALID,0,VALID,21.6128,VALID,313,VALID,0.238281,
2010-07-07, 01:55:04,VALID,916.38,VALID,0,VALID,95.1021,VALID,0,VALID,21.5737,VALID,313,VALID,0.635547,
2010-07-07, 01:56:04,VALID,916.372,VALID,0,VALID,95.2088,VALID,0,VALID,21.5737,VALID,312,VALID,0.439844,
2010-07-07, 01:57:04,VALID,916.358,VALID,0,VALID,95.3461,VALID,0,VALID,21.5737,VALID,312,VALID,0.227344,
2010-07-07, 01:58:04,VALID,916.325,VALID,0,VALID,95.4223,VALID,0,VALID,21.5542,VALID,312,VALID,0.391406,
2010-07-07, 01:59:04,VALID,916.327,VALID,0,VALID,95.4528,VALID,0,VALID,21.5737,VALID,313,VALID,0.369141,
2010-07-07, 02:00:04,VALID,916.292,VALID,0,VALID,95.4604,VALID,0,VALID,21.5737,VALID,312,VALID,0.425391,
2010-07-07, 02:01:04,VALID,916.29,VALID,0,VALID,95.4604,VALID,0,VALID,21.5542,VALID,312,VALID,0.292578,
2010-07-07, 02:02:04,VALID,916.267,VALID,0,VALID,95.4985,VALID,0,VALID,21.5737,VALID,312,VALID,0.425,
2010-07-07, 02:03:04,VALID,916.3,VALID,0,VALID,95.529,VALID,0,VALID,21.5737,VALID,312,VALID,0.695703,
2010-07-07, 02:04:04,VALID,916.296,VALID,0,VALID,95.5443,VALID,0,VALID,21.5737,VALID,312,VALID,0.478125,
2010-07-07, 02:05:04,VALID,916.304,VALID,0,VALID,95.4985,VALID,0,VALID,21.5542,VALID,312,VALID,0.532422,
2010-07-07, 02:06:04,VALID,916.317,VALID,0,VALID,95.5062,VALID,0,VALID,21.5737,VALID,312,VALID,0.197266,
2010-07-07, 02:07:04,VALID,916.291,VALID,0,VALID,95.5138,VALID,0,VALID,21.5737,VALID,312,VALID,0.484375,
2010-07-07, 02:08:04,VALID,916.277,VALID,0,VALID,95.5138,VALID,0,VALID,21.5737,VALID,312,VALID,0.280859,
2010-07-07, 02:09:04,VALID,916.305,VALID,0,VALID,95.5138,VALID,0,VALID,21.5932,VALID,312,VALID,0,
2010-07-07, 02:10:04,VALID,916.297,VALID,0,VALID,95.4757,VALID,0,VALID,21.5932,VALID,312,VALID,0.000390625,
2010-07-07, 02:11:04,VALID,916.304,VALID,0,VALID,95.468,VALID,0,VALID,21.5932,VALID,312,VALID,0,
2010-07-07, 02:12:04,VALID,916.326,VALID,0,VALID,95.4299,VALID,0,VALID,21.6128,VALID,312,VALID,0.237891,
2010-07-07, 02:13:04,VALID,916.317,VALID,0,VALID,95.3079,VALID,0,VALID,21.6128,VALID,312,VALID,0.239063,
2010-07-07, 02:14:04,VALID,916.328,VALID,0,VALID,95.2698,VALID,0,VALID,21.6323,VALID,312,VALID,0.221875,
2010-07-07, 02:15:04,VALID,916.334,VALID,0,VALID,95.247,VALID,0,VALID,21.6323,VALID,312,VALID,0.148828,
2010-07-07, 02:16:04,VALID,916.337,VALID,0,VALID,95.2088,VALID,0,VALID,21.6518,VALID,312,VALID,0,
2010-07-07, 02:17:04,VALID,916.349,VALID,0,VALID,95.1479,VALID,0,VALID,21.6713,VALID,312,VALID,0,
2010-07-07, 02:18:04,VALID,916.353,VALID,0,VALID,95.1021,VALID,0,VALID,21.6924,VALID,312,VALID,0,
2010-07-07, 02:19:04,VALID,916.386,VALID,0,VALID,95.0259,VALID,0,VALID,21.7103,VALID,312,VALID,0.335938,
2010-07-07, 02:20:04,VALID,916.398,VALID,0,VALID,94.942,VALID,0,VALID,21.7103,VALID,312,VALID,0.164844,
2010-07-07, 02:21:04,VALID,916.426,VALID,0,VALID,94.8505,VALID,0,VALID,21.7298,VALID,312,VALID,0,
2010-07-07, 02:22:04,VALID,916.417,VALID,0,VALID,94.8505,VALID,0,VALID,21.7705,VALID,312,VALID,0,
2010-07-07, 02:23:04,VALID,916.413,VALID,0,VALID,94.7286,VALID,0,VALID,21.7493,VALID,312,VALID,0,
2010-07-07, 02:24:04,VALID,916.414,VALID,0,VALID,94.6295,VALID,0,VALID,21.7493,VALID,312,VALID,0,
2010-07-07, 02:25:04,VALID,916.398,VALID,0,VALID,94.5227,VALID,0,VALID,21.8095,VALID,312,VALID,0,
2010-07-07, 02:26:04,VALID,916.37,VALID,0,VALID,94.477,VALID,0,VALID,21.7883,VALID,312,VALID,0.2875,
2010-07-07, 02:27:04,VALID,916.371,VALID,0,VALID,94.4313,VALID,0,VALID,21.7883,VALID,312,VALID,0.519141,
2010-07-07, 02:28:04,VALID,916.399,VALID,0,VALID,94.5609,VALID,0,VALID,21.8274,VALID,312,VALID,0.518359,
2010-07-07, 02:29:04,VALID,916.395,VALID,0,VALID,94.6371,VALID,0,VALID,21.8469,VALID,312,VALID,0.601563,
2010-07-07, 02:30:04,VALID,916.4,VALID,0,VALID,94.5227,VALID,0,VALID,21.8664,VALID,312,VALID,0.459375,
2010-07-07, 02:31:04,VALID,916.387,VALID,0,VALID,94.4617,VALID,0,VALID,21.8664,VALID,312,VALID,0.491797,
2010-07-07, 02:32:04,VALID,916.392,VALID,0,VALID,94.4389,VALID,0.107441,VALID,21.8452,VALID,312,VALID,0.437891,
2010-07-07, 02:33:04,VALID,916.363,VALID,0,VALID,94.4541,VALID,0,VALID,21.8647,VALID,312,VALID,0.592188,
2010-07-07, 02:34:04,VALID,916.359,VALID,0,VALID,94.355,VALID,0.107441,VALID,21.8647,VALID,312,VALID,0.651563,
2010-07-07, 02:35:04,VALID,916.359,VALID,0,VALID,94.073,VALID,0.107441,VALID,21.8664,VALID,312,VALID,0.735156,
2010-07-07, 02:36:04,VALID,916.327,VALID,0,VALID,94.1568,VALID,0.107441,VALID,21.8062,VALID,312,VALID,0.650391,
2010-07-07, 02:37:04,VALID,916.319,VALID,0,VALID,94.3855,VALID,0.107441,VALID,21.7867,VALID,312,VALID,0.609766,
2010-07-07, 02:38:04,VALID,916.315,VALID,0,VALID,94.477,VALID,0.107441,VALID,21.7477,VALID,312,VALID,0.423438,
2010-07-07, 02:39:04,VALID,916.279,VALID,0,VALID,94.6218,VALID,0.107441,VALID,21.7282,VALID,312,VALID,0.212891,
2010-07-07, 02:40:04,VALID,916.289,VALID,0,VALID,94.8353,VALID,0,VALID,21.7282,VALID,312,VALID,0.244922,
2010-07-07, 02:41:04,VALID,916.293,VALID,0,VALID,94.9573,VALID,0.107441,VALID,21.7477,VALID,312,VALID,0.0644531,
2010-07-07, 02:42:04,VALID,916.253,VALID,0,VALID,94.9344,VALID,0.107441,VALID,21.746,VALID,312,VALID,0.00078125,
2010-07-07, 02:43:04,VALID,916.297,VALID,0,VALID,94.7057,VALID,0.107441,VALID,21.7672,VALID,312,VALID,0.123047,
2010-07-07, 02:44:04,VALID,916.248,VALID,0,VALID,94.6371,VALID,0.107441,VALID,21.7867,VALID,312,VALID,0.302344,
2010-07-07, 02:45:04,VALID,916.258,VALID,0,VALID,94.5456,VALID,0,VALID,21.7867,VALID,312,VALID,0.494922,
2010-07-07, 02:46:04,VALID,916.268,VALID,0,VALID,94.4313,VALID,0,VALID,21.7883,VALID,312,VALID,0.553906,
2010-07-07, 02:47:04,VALID,916.252,VALID,0,VALID,94.3398,VALID,0,VALID,21.7883,VALID,312,VALID,0.596094,
2010-07-07, 02:48:04,VALID,916.26,VALID,0,VALID,94.355,VALID,0,VALID,21.7493,VALID,312,VALID,0.602344,
2010-07-07, 02:49:04,VALID,916.277,VALID,0,VALID,94.4999,VALID,0,VALID,21.7298,VALID,312,VALID,0.273047,
2010-07-07, 02:50:04,VALID,916.259,VALID,0,VALID,94.7057,VALID,0,VALID,21.6908,VALID,312,VALID,0.255469,
2010-07-07, 02:51:04,VALID,916.275,VALID,0,VALID,94.9268,VALID,0,VALID,21.6908,VALID,312,VALID,0.144922,
2010-07-07, 02:52:04,VALID,916.239,VALID,0,VALID,95.064,VALID,0,VALID,21.6729,VALID,312,VALID,0.248437,
2010-07-07, 02:53:04,VALID,916.238,VALID,0,VALID,95.2088,VALID,0,VALID,21.6518,VALID,312,VALID,0.172266,
2010-07-07, 02:54:04,VALID,916.229,VALID,0,VALID,95.3232,VALID,0,VALID,21.6323,VALID,312,VALID,0.279297,
2010-07-07, 02:55:04,VALID,916.216,VALID,0,VALID,95.4147,VALID,0,VALID,21.6339,VALID,312,VALID,0.410547,
2010-07-07, 02:56:04,VALID,916.191,VALID,0,VALID,95.4757,VALID,0,VALID,21.6128,VALID,312,VALID,0.232031,
2010-07-07, 02:57:04,VALID,916.161,VALID,0,VALID,95.5595,VALID,0,VALID,21.6144,VALID,312,VALID,0.174609,
2010-07-07, 02:58:04,VALID,916.153,VALID,0,VALID,95.5824,VALID,0,VALID,21.5737,VALID,312,VALID,0.516406,
2010-07-07, 02:59:04,VALID,916.151,VALID,0,VALID,95.6281,VALID,0,VALID,21.5526,VALID,312,VALID,0.340625,
2010-07-07, 03:00:04,VALID,916.143,VALID,0,VALID,95.6967,VALID,0,VALID,21.5542,VALID,312,VALID,0.216797,
2010-07-07, 03:01:04,VALID,916.15,VALID,0,VALID,95.7349,VALID,0,VALID,21.5542,VALID,312,VALID,0.24375,
2010-07-07, 03:02:04,VALID,916.182,VALID,0,VALID,95.773,VALID,0,VALID,21.5542,VALID,312,VALID,0,
2010-07-07, 03:03:04,VALID,916.169,VALID,0,VALID,95.7501,VALID,0,VALID,21.5347,VALID,312,VALID,0.0164062,
2010-07-07, 03:04:04,VALID,916.203,VALID,0,VALID,95.8035,VALID,0,VALID,21.5152,VALID,312,VALID,0,
2010-07-07, 03:05:04,VALID,916.167,VALID,0,VALID,95.834,VALID,0,VALID,21.5542,VALID,312,VALID,0,
2010-07-07, 03:06:04,VALID,916.177,VALID,0,VALID,95.8492,VALID,0,VALID,21.5737,VALID,312,VALID,0,
2010-07-07, 03:07:04,VALID,916.197,VALID,0,VALID,95.8568,VALID,0,VALID,21.5932,VALID,312,VALID,0.10625,
2010-07-07, 03:08:04,VALID,916.172,VALID,0,VALID,95.8035,VALID,0,VALID,21.5932,VALID,312,VALID,0.0769531,
2010-07-07, 03:09:04,VALID,916.173,VALID,0,VALID,95.6053,VALID,0,VALID,21.5542,VALID,312,VALID,0.326172,
2010-07-07, 03:10:04,VALID,916.185,VALID,0,VALID,95.5214,VALID,0,VALID,21.5737,VALID,312,VALID,0.316016,
2010-07-07, 03:11:04,VALID,916.202,VALID,0,VALID,95.4528,VALID,0,VALID,21.5737,VALID,312,VALID,0,
2010-07-07, 03:12:04,VALID,916.185,VALID,0,VALID,95.3461,VALID,0,VALID,21.5737,VALID,312,VALID,0,
2010-07-07, 03:13:04,VALID,916.199,VALID,0,VALID,95.2698,VALID,0,VALID,21.5932,VALID,312,VALID,0,
2010-07-07, 03:14:04,VALID,916.195,VALID,0,VALID,95.1707,VALID,0,VALID,21.5932,VALID,312,VALID,0.422266,
2010-07-07, 03:15:04,VALID,916.17,VALID,0,VALID,95.0945,VALID,0,VALID,21.6128,VALID,312,VALID,0.489844,
2010-07-07, 03:16:04,VALID,916.199,VALID,0,VALID,94.9878,VALID,0,VALID,21.6323,VALID,312,VALID,0.350391,
2010-07-07, 03:17:04,VALID,916.204,VALID,0,VALID,94.9268,VALID,0,VALID,21.6323,VALID,312,VALID,0.164844,
2010-07-07, 03:18:04,VALID,916.232,VALID,0,VALID,94.82,VALID,0,VALID,21.6323,VALID,312,VALID,0,
2010-07-07, 03:19:04,VALID,916.227,VALID,0,VALID,94.7667,VALID,0,VALID,21.6323,VALID,312,VALID,0,
2010-07-07, 03:20:04,VALID,916.233,VALID,0,VALID,94.7972,VALID,0,VALID,21.6518,VALID,312,VALID,0.0832031,
2010-07-07, 03:21:04,VALID,916.224,VALID,0,VALID,94.7514,VALID,0,VALID,21.6323,VALID,312,VALID,0.0699219,
2010-07-07, 03:22:04,VALID,916.175,VALID,0,VALID,94.8277,VALID,0,VALID,21.6323,VALID,312,VALID,0,
2010-07-07, 03:23:04,VALID,916.142,VALID,0,VALID,94.9039,VALID,0,VALID,21.6128,VALID,312,VALID,0,
2010-07-07, 03:24:04,VALID,916.141,VALID,0,VALID,94.9115,VALID,0,VALID,21.6323,VALID,312,VALID,0.192969,
2010-07-07, 03:25:04,VALID,916.096,VALID,0,VALID,94.7362,VALID,0,VALID,21.5542,VALID,312,VALID,0.386328,
2010-07-07, 03:26:04,VALID,916.079,VALID,0,VALID,94.7591,VALID,0,VALID,21.5737,VALID,312,VALID,0.192969,
2010-07-07, 03:27:04,VALID,916.105,VALID,0,VALID,94.8734,VALID,0,VALID,21.5542,VALID,312,VALID,0.221875,
2010-07-07, 03:28:04,VALID,916.078,VALID,0,VALID,94.9268,VALID,0,VALID,21.5737,VALID,312,VALID,0,
2010-07-07, 03:29:04,VALID,916.101,VALID,0,VALID,94.8277,VALID,0,VALID,21.5737,VALID,312,VALID,0,
2010-07-07, 03:30:04,VALID,916.114,VALID,0,VALID,94.7514,VALID,0,VALID,21.5542,VALID,312,VALID,0,
2010-07-07, 03:31:04,VALID,916.147,VALID,0,VALID,94.7438,VALID,0,VALID,21.5721,VALID,312,VALID,0,
2010-07-07, 03:32:04,VALID,916.171,VALID,0,VALID,94.7514,VALID,0,VALID,21.5721,VALID,312,VALID,0.46875,
2010-07-07, 03:33:04,VALID,916.18,VALID,0,VALID,94.7438,VALID,0,VALID,21.5737,VALID,312,VALID,0.572656,
2010-07-07, 03:34:04,VALID,916.177,VALID,0,VALID,94.8124,VALID,0,VALID,21.5526,VALID,312,VALID,0.441797,
2010-07-07, 03:35:04,VALID,916.174,VALID,0,VALID,94.7743,VALID,0.107441,VALID,21.5136,VALID,312,VALID,0.265625,
2010-07-07, 03:36:04,VALID,916.161,VALID,0,VALID,94.8734,VALID,0,VALID,21.5152,VALID,312,VALID,0,
2010-07-07, 03:37:04,VALID,916.144,VALID,0,VALID,94.9801,VALID,0,VALID,21.4941,VALID,312,VALID,0,
2010-07-07, 03:38:04,VALID,916.131,VALID,0,VALID,95.064,VALID,0,VALID,21.4941,VALID,312,VALID,0.0433594,
2010-07-07, 03:39:04,VALID,916.125,VALID,0,VALID,95.1097,VALID,0,VALID,21.5331,VALID,312,VALID,0.344141,
2010-07-07, 03:40:04,VALID,916.129,VALID,0,VALID,95.125,VALID,0.107441,VALID,21.5136,VALID,312,VALID,0.162109,
2010-07-07, 03:41:04,VALID,916.101,VALID,0,VALID,95.1479,VALID,0,VALID,21.5526,VALID,312,VALID,0.322656,
2010-07-07, 03:42:04,VALID,916.072,VALID,0,VALID,95.1174,VALID,0.107441,VALID,21.5526,VALID,312,VALID,0.198047,
2010-07-07, 03:43:04,VALID,916.084,VALID,0,VALID,95.1174,VALID,0,VALID,21.5526,VALID,312,VALID,0.240625,
2010-07-07, 03:44:04,VALID,916.081,VALID,0,VALID,94.9573,VALID,0,VALID,21.5526,VALID,312,VALID,0.270312,
2010-07-07, 03:45:04,VALID,916.069,VALID,0,VALID,94.9039,VALID,0,VALID,21.5526,VALID,312,VALID,0.252734,